TimeMST,TemperatureF,Dew PointF,Humidity,Sea Level PressureIn,VisibilityMPH,Wind Direction,Wind SpeedMPH,Gust SpeedMPH,PrecipitationIn,Events,Conditions,WindDirDegrees,DateUTC
12:53 AM,16.0,10.9,81,30.45,10.0,Calm,Calm,-,N/A,,Clear,0,2014-01-21 07:53:00
1:53 AM,14.0,10.0,84,30.45,10.0,SW,5.8,-,N/A,,Clear,220,2014-01-21 08:53:00
2:53 AM,16.0,10.9,81,30.43,10.0,SSW,8.1,-,N/A,,Clear,200,2014-01-21 09:53:00
3:53 AM,12.0,9.0,88,30.42,10.0,South,4.6,-,N/A,,Clear,180,2014-01-21 10:53:00
4:53 AM,10.9,7.0,84,30.39,10.0,SSE,6.9,-,N/A,,Clear,160,2014-01-21 11:53:00
5:53 AM,12.9,9.0,84,30.36,10.0,SSE,9.2,-,N/A,,Clear,160,2014-01-21 12:53:00
6:53 AM,10.0,7.0,87,30.34,10.0,SSE,5.8,-,N/A,,Clear,150,2014-01-21 13:53:00
7:53 AM,18.0,12.9,81,30.30,10.0,South,8.1,-,N/A,,Clear,180,2014-01-21 14:53:00
9:53 AM,30.0,18.0,61,30.24,10.0,West,6.9,-,N/A,,Clear,260,2014-01-21 16:53:00
10:53 AM,42.1,19.0,40,30.18,10.0,West,8.1,-,N/A,,Clear,280,2014-01-21 17:53:00
11:53 AM,55.0,10.0,17,30.11,10.0,NNW,24.2,31.1,N/A,,Clear,330,2014-01-21 18:53:00
12:53 PM,57.9,3.9,11,30.06,10.0,NW,29.9,38.0,N/A,,Clear,320,2014-01-21 19:53:00
1:53 PM,57.9,7.0,13,30.06,10.0,NW,25.3,35.7,N/A,,Clear,320,2014-01-21 20:53:00
2:53 PM,57.9,8.1,14,30.06,7.0,NNW,29.9,40.3,N/A,,Mostly Cloudy,330,2014-01-21 21:53:00
3:53 PM,55.9,10.0,16,30.08,10.0,NNW,28.8,34.5,N/A,,Partly Cloudy,330,2014-01-21 22:53:00
4:53 PM,51.1,10.9,20,30.11,10.0,NNW,20.7,31.1,N/A,,Clear,340,2014-01-21 23:53:00
5:53 PM,46.0,10.9,24,30.15,10.0,NNW,17.3,-,N/A,,Clear,340,2014-01-22 00:53:00
6:53 PM,43.0,10.9,27,30.17,10.0,NNW,15.0,-,N/A,,Clear,330,2014-01-22 01:53:00
7:53 PM,41.0,12.0,31,30.19,10.0,NW,13.8,-,N/A,,Clear,320,2014-01-22 02:53:00
8:53 PM,37.9,12.9,36,30.11,10.0,NNW,15.0,-,N/A,,Scattered Clouds,330,2014-01-22 03:53:00
9:53 PM,30.0,12.0,47,30.20,10.0,NNW,8.1,-,N/A,,Clear,340,2014-01-22 04:53:00
10:53 PM,26.1,12.0,55,30.17,10.0,NNW,6.9,-,N/A,,Clear,340,2014-01-22 05:53:00
11:53 PM,26.1,12.0,55,30.15,10.0,NW,8.1,-,N/A,,Unknown,310,2014-01-22 06:53:00